Year,Month,Day,Hour,Minute,Value (Times are PST for windspeed in km/hr)
2007,12,04,00,00,0.00
2007,12,04,00,01,0.20
2007,12,04,00,02,0.50
2007,12,04,00,03,0.00
2007,12,04,00,04,3.10
2007,12,04,00,05,5.20
2007,12,04,00,06,4.70
2007,12,04,00,07,5.00
2007,12,04,00,08,6.80
2007,12,04,00,09,5.30
2007,12,04,00,10,1.50
2007,12,04,00,11,1.90
2007,12,04,00,12,2.10
2007,12,04,00,13,2.50
2007,12,04,00,14,5.10
2007,12,04,00,15,3.30
2007,12,04,00,16,2.40
2007,12,04,00,17,6.80
2007,12,04,00,18,8.20
2007,12,04,00,19,7.10
2007,12,04,00,20,11.90
2007,12,04,00,21,11.20
2007,12,04,00,22,9.70
2007,12,04,00,23,5.50
2007,12,04,00,24,1.90
2007,12,04,00,25,7.10
2007,12,04,00,26,4.80
2007,12,04,00,27,4.80
2007,12,04,00,28,3.30
2007,12,04,00,29,4.50
2007,12,04,00,30,3.40
2007,12,04,00,31,5.20
2007,12,04,00,32,4.60
2007,12,04,00,33,4.80
2007,12,04,00,34,2.00
2007,12,04,00,35,6.20
2007,12,04,00,36,7.70
2007,12,04,00,37,6.00
2007,12,04,00,38,4.80
2007,12,04,00,39,4.40
2007,12,04,00,40,7.90
2007,12,04,00,41,3.90
2007,12,04,00,42,1.10
2007,12,04,00,43,0.10
2007,12,04,00,44,4.80
2007,12,04,00,45,1.50
2007,12,04,00,46,3.60
2007,12,04,00,47,0.00
2007,12,04,00,48,0.80
2007,12,04,00,49,2.30
2007,12,04,00,50,0.10
2007,12,04,00,51,0.20
2007,12,04,00,52,1.60
2007,12,04,00,53,3.80
2007,12,04,00,54,8.10
2007,12,04,00,55,5.90
2007,12,04,00,56,5.40
2007,12,04,00,57,4.70
2007,12,04,00,58,6.90
2007,12,04,00,59,5.30
2007,12,04,01,00,9.30
2007,12,04,01,01,4.70
2007,12,04,01,02,2.70
2007,12,04,01,03,7.10
2007,12,04,01,04,8.60
2007,12,04,01,05,6.40
2007,12,04,01,06,2.80
2007,12,04,01,07,2.60
2007,12,04,01,08,5.60
2007,12,04,01,09,1.90
2007,12,04,01,10,8.50
2007,12,04,01,11,7.00
2007,12,04,01,12,5.60
2007,12,04,01,13,4.70
2007,12,04,01,14,3.20
2007,12,04,01,15,7.70
2007,12,04,01,16,5.50
2007,12,04,01,17,6.10
2007,12,04,01,18,10.90
2007,12,04,01,19,6.90
2007,12,04,01,20,7.80
2007,12,04,01,21,7.50
2007,12,04,01,22,9.00
2007,12,04,01,23,5.70
2007,12,04,01,24,8.60
2007,12,04,01,25,8.10
2007,12,04,01,26,6.00
2007,12,04,01,27,4.40
2007,12,04,01,28,6.70
2007,12,04,01,29,3.00
2007,12,04,01,30,4.00
2007,12,04,01,31,3.70
2007,12,04,01,32,6.00
2007,12,04,01,33,2.10
2007,12,04,01,34,8.70
2007,12,04,01,35,9.30
2007,12,04,01,36,14.60
2007,12,04,01,37,9.30
2007,12,04,01,38,8.70
2007,12,04,01,39,7.20
2007,12,04,01,40,11.70
2007,12,04,01,41,9.30
2007,12,04,01,42,7.30
2007,12,04,01,43,5.90
2007,12,04,01,44,4.90
2007,12,04,01,45,7.30
2007,12,04,01,46,6.00
2007,12,04,01,47,5.80
2007,12,04,01,48,4.30
2007,12,04,01,49,7.30
2007,12,04,01,50,6.90
2007,12,04,01,51,5.90
2007,12,04,01,52,0.60
2007,12,04,01,53,5.50
2007,12,04,01,54,18.10
2007,12,04,01,55,18.70
2007,12,04,01,56,17.40
2007,12,04,01,57,14.10
2007,12,04,01,58,11.40
2007,12,04,01,59,11.40
2007,12,04,02,00,9.70
2007,12,04,02,01,11.30
2007,12,04,02,02,8.30
2007,12,04,02,03,6.90
2007,12,04,02,04,4.30
2007,12,04,02,05,7.20
2007,12,04,02,06,16.00
2007,12,04,02,07,14.90
2007,12,04,02,08,7.30
2007,12,04,02,09,7.20
2007,12,04,02,10,7.50
2007,12,04,02,11,9.90
2007,12,04,02,12,13.00
2007,12,04,02,13,17.40
2007,12,04,02,14,18.20
2007,12,04,02,15,15.00
2007,12,04,02,16,11.70
2007,12,04,02,17,10.80
2007,12,04,02,18,13.70
2007,12,04,02,19,9.30
2007,12,04,02,20,5.80
2007,12,04,02,21,6.40
2007,12,04,02,22,17.10
2007,12,04,02,23,13.50
2007,12,04,02,24,24.40
2007,12,04,02,25,22.70
2007,12,04,02,26,19.60
2007,12,04,02,27,14.50
2007,12,04,02,28,19.20
2007,12,04,02,29,14.40
2007,12,04,02,30,11.30
2007,12,04,02,31,13.60
2007,12,04,02,32,10.00
2007,12,04,02,33,15.70
2007,12,04,02,34,18.90
2007,12,04,02,35,23.70
2007,12,04,02,36,17.90
2007,12,04,02,37,13.20
2007,12,04,02,38,12.20
2007,12,04,02,39,13.50
2007,12,04,02,40,24.80
2007,12,04,02,41,22.30
2007,12,04,02,42,22.90
2007,12,04,02,43,20.90
2007,12,04,02,44,13.40
2007,12,04,02,45,12.50
2007,12,04,02,46,11.10
2007,12,04,02,47,8.40
2007,12,04,02,48,7.10
2007,12,04,02,49,8.10
2007,12,04,02,50,9.70
2007,12,04,02,51,20.60
2007,12,04,02,52,17.10
2007,12,04,02,53,6.30
2007,12,04,02,54,12.50
2007,12,04,02,55,9.20
2007,12,04,02,56,20.00
2007,12,04,02,57,17.50
2007,12,04,02,58,14.20
2007,12,04,02,59,13.60
2007,12,04,03,00,19.50
2007,12,04,03,01,21.30
2007,12,04,03,02,12.60
2007,12,04,03,03,6.70
2007,12,04,03,04,7.00
2007,12,04,03,05,16.70
2007,12,04,03,06,10.40
2007,12,04,03,07,12.30
2007,12,04,03,08,14.70
2007,12,04,03,09,10.40
2007,12,04,03,10,9.80
2007,12,04,03,11,13.00
2007,12,04,03,12,8.80
2007,12,04,03,13,14.90
2007,12,04,03,14,24.10
2007,12,04,03,15,19.90
2007,12,04,03,16,8.20
2007,12,04,03,17,10.80
2007,12,04,03,18,12.50
2007,12,04,03,19,9.80
2007,12,04,03,20,7.50
2007,12,04,03,21,8.60
2007,12,04,03,22,3.40
2007,12,04,03,23,3.30
2007,12,04,03,24,3.20
2007,12,04,03,25,3.50
2007,12,04,03,26,5.60
2007,12,04,03,27,2.80
2007,12,04,03,28,6.80
2007,12,04,03,29,5.40
2007,12,04,03,30,4.80
2007,12,04,03,31,10.40
2007,12,04,03,32,14.90
2007,12,04,03,33,9.20
2007,12,04,03,34,8.20
2007,12,04,03,35,10.30
2007,12,04,03,36,7.10
2007,12,04,03,37,13.90
2007,12,04,03,38,10.70
2007,12,04,03,39,12.30
2007,12,04,03,40,15.50
2007,12,04,03,41,17.50
2007,12,04,03,42,12.30
2007,12,04,03,43,10.30
2007,12,04,03,44,9.70
2007,12,04,03,45,10.30
2007,12,04,03,46,8.90
2007,12,04,03,47,5.50
2007,12,04,03,48,8.60
2007,12,04,03,49,13.20
2007,12,04,03,50,22.20
2007,12,04,03,51,15.30
2007,12,04,03,52,13.50
2007,12,04,03,53,17.80
2007,12,04,03,54,12.40
2007,12,04,03,55,5.10
2007,12,04,03,56,9.20
2007,12,04,03,57,6.90
2007,12,04,03,58,9.70
2007,12,04,03,59,6.00
2007,12,04,04,00,6.30
2007,12,04,04,01,7.10
2007,12,04,04,02,2.20
2007,12,04,04,03,2.10
2007,12,04,04,04,5.20
2007,12,04,04,05,6.30
2007,12,04,04,06,12.50
2007,12,04,04,07,12.80
2007,12,04,04,08,7.90
2007,12,04,04,09,7.80
2007,12,04,04,10,11.30
2007,12,04,04,11,5.40
2007,12,04,04,12,5.50
2007,12,04,04,13,15.10
2007,12,04,04,14,26.10
2007,12,04,04,15,8.70
2007,12,04,04,16,11.20
2007,12,04,04,17,10.70
2007,12,04,04,18,11.00
2007,12,04,04,19,11.60
2007,12,04,04,20,8.40
2007,12,04,04,21,9.30
2007,12,04,04,22,9.10
2007,12,04,04,23,19.90
2007,12,04,04,24,10.90
2007,12,04,04,25,22.60
2007,12,04,04,26,15.70
2007,12,04,04,27,9.40
2007,12,04,04,28,15.10
2007,12,04,04,29,9.80
2007,12,04,04,30,8.90
2007,12,04,04,31,9.10
2007,12,04,04,32,13.40
2007,12,04,04,33,9.70
2007,12,04,04,34,5.80
2007,12,04,04,35,6.20
2007,12,04,04,36,4.40
2007,12,04,04,37,2.00
2007,12,04,04,38,5.30
2007,12,04,04,39,6.90
2007,12,04,04,40,6.60
2007,12,04,04,41,7.80
2007,12,04,04,42,15.90
2007,12,04,04,43,15.40
2007,12,04,04,44,12.10
2007,12,04,04,45,4.30
2007,12,04,04,46,2.00
2007,12,04,04,47,1.30
2007,12,04,04,48,0.80
2007,12,04,04,49,3.70
2007,12,04,04,50,3.70
2007,12,04,04,51,1.70
2007,12,04,04,52,6.50
2007,12,04,04,53,10.50
2007,12,04,04,54,6.70
2007,12,04,04,55,10.10
2007,12,04,04,56,9.50
2007,12,04,04,57,14.20
2007,12,04,04,58,9.60
2007,12,04,04,59,14.10
2007,12,04,05,00,8.10
2007,12,04,05,01,8.00
2007,12,04,05,02,4.10
2007,12,04,05,03,2.00
2007,12,04,05,04,1.80
2007,12,04,05,05,4.60
2007,12,04,05,06,3.10
2007,12,04,05,07,5.20
2007,12,04,05,08,10.00
2007,12,04,05,09,18.20
2007,12,04,05,10,11.10
2007,12,04,05,11,16.50
2007,12,04,05,12,11.90
2007,12,04,05,13,7.30
2007,12,04,05,14,7.20
2007,12,04,05,15,2.90
2007,12,04,05,16,4.10
2007,12,04,05,17,4.70
2007,12,04,05,18,11.90
2007,12,04,05,19,7.20
2007,12,04,05,20,6.90
2007,12,04,05,21,10.00
2007,12,04,05,22,8.80
2007,12,04,05,23,10.10
2007,12,04,05,24,13.50
2007,12,04,05,25,8.30
2007,12,04,05,26,8.30
2007,12,04,05,27,11.90
2007,12,04,05,28,7.70
2007,12,04,05,29,21.00
2007,12,04,05,30,22.30
2007,12,04,05,31,18.20
2007,12,04,05,32,18.90
2007,12,04,05,33,22.70
2007,12,04,05,34,20.00
2007,12,04,05,35,14.20
2007,12,04,05,36,15.40
2007,12,04,05,37,13.70
2007,12,04,05,38,12.70
2007,12,04,05,39,16.20
2007,12,04,05,40,23.70
2007,12,04,05,41,12.90
2007,12,04,05,42,13.90
2007,12,04,05,43,14.90
2007,12,04,05,44,14.80
2007,12,04,05,45,7.60
2007,12,04,05,46,8.50
2007,12,04,05,47,11.50
2007,12,04,05,48,10.50
2007,12,04,05,49,11.30
2007,12,04,05,50,11.60
2007,12,04,05,51,11.90
2007,12,04,05,52,15.30
2007,12,04,05,53,11.10
2007,12,04,05,54,17.10
2007,12,04,05,55,10.20
2007,12,04,05,56,14.00
2007,12,04,05,57,5.20
2007,12,04,05,58,10.40
2007,12,04,05,59,10.70
2007,12,04,06,00,8.00
2007,12,04,06,01,11.60
2007,12,04,06,02,12.40
2007,12,04,06,03,16.10
2007,12,04,06,04,9.50
2007,12,04,06,05,14.20
2007,12,04,06,06,8.80
2007,12,04,06,07,6.80
2007,12,04,06,08,13.00
2007,12,04,06,09,6.30
2007,12,04,06,10,7.90
2007,12,04,06,11,10.40
2007,12,04,06,12,5.20
2007,12,04,06,13,6.40
2007,12,04,06,14,4.30
2007,12,04,06,15,6.10
2007,12,04,06,16,3.00
2007,12,04,06,17,4.90
2007,12,04,06,18,6.10
2007,12,04,06,19,10.50
2007,12,04,06,20,6.70
2007,12,04,06,21,1.40
2007,12,04,06,22,3.50
2007,12,04,06,23,6.20
2007,12,04,06,24,5.60
2007,12,04,06,25,2.60
2007,12,04,06,26,0.00
2007,12,04,06,27,0.00
2007,12,04,06,28,2.20
2007,12,04,06,29,5.40
2007,12,04,06,30,4.70
2007,12,04,06,31,6.40
2007,12,04,06,32,7.40
2007,12,04,06,33,10.90
2007,12,04,06,34,18.80
2007,12,04,06,35,7.70
2007,12,04,06,36,10.70
2007,12,04,06,37,15.00
2007,12,04,06,38,20.90
2007,12,04,06,39,9.70
2007,12,04,06,40,7.90
2007,12,04,06,41,9.80
2007,12,04,06,42,8.20
2007,12,04,06,43,11.40
2007,12,04,06,44,11.40
2007,12,04,06,45,12.50
2007,12,04,06,46,14.70
2007,12,04,06,47,13.40
2007,12,04,06,48,14.50
2007,12,04,06,49,7.50
2007,12,04,06,50,8.80
2007,12,04,06,51,8.50
2007,12,04,06,52,4.00
2007,12,04,06,53,5.00
2007,12,04,06,54,9.30
2007,12,04,06,55,16.60
2007,12,04,06,56,11.00
2007,12,04,06,57,11.90
2007,12,04,06,58,18.70
2007,12,04,06,59,17.80
2007,12,04,07,00,9.00
2007,12,04,07,01,16.20
2007,12,04,07,02,15.60
2007,12,04,07,03,9.50
2007,12,04,07,04,14.30
2007,12,04,07,05,13.70
2007,12,04,07,06,11.40
2007,12,04,07,07,14.20
2007,12,04,07,08,9.80
2007,12,04,07,09,10.10
2007,12,04,07,10,15.40
2007,12,04,07,11,16.60
2007,12,04,07,12,10.40
2007,12,04,07,13,16.90
2007,12,04,07,14,10.10
2007,12,04,07,15,12.20
2007,12,04,07,16,12.90
2007,12,04,07,17,18.00
2007,12,04,07,18,12.20
2007,12,04,07,19,9.70
2007,12,04,07,20,12.80
2007,12,04,07,21,19.10
2007,12,04,07,22,14.70
2007,12,04,07,23,10.70
2007,12,04,07,24,9.40
2007,12,04,07,25,11.30
2007,12,04,07,26,18.60
2007,12,04,07,27,10.30
2007,12,04,07,28,13.50
2007,12,04,07,29,21.00
2007,12,04,07,30,15.30
2007,12,04,07,31,10.40
2007,12,04,07,32,17.80
2007,12,04,07,33,12.30
2007,12,04,07,34,9.00
2007,12,04,07,35,11.60
2007,12,04,07,36,16.90
2007,12,04,07,37,14.60
2007,12,04,07,38,10.00
2007,12,04,07,39,12.20
2007,12,04,07,40,13.20
2007,12,04,07,41,15.10
2007,12,04,07,42,18.70
2007,12,04,07,43,17.10
2007,12,04,07,44,14.70
2007,12,04,07,45,17.60
2007,12,04,07,46,14.30
2007,12,04,07,47,12.50
2007,12,04,07,48,17.00
2007,12,04,07,49,17.20
2007,12,04,07,50,25.40
2007,12,04,07,51,21.00
2007,12,04,07,52,19.30
2007,12,04,07,53,28.10
2007,12,04,07,54,16.10
2007,12,04,07,55,16.10
2007,12,04,07,56,18.90
2007,12,04,07,57,15.20
2007,12,04,07,58,10.40
2007,12,04,07,59,13.90
2007,12,04,08,00,21.20
2007,12,04,08,01,19.80
2007,12,04,08,02,14.60
2007,12,04,08,03,18.70
2007,12,04,08,04,18.00
2007,12,04,08,05,10.80
2007,12,04,08,06,14.50
2007,12,04,08,07,20.30
2007,12,04,08,08,14.00
2007,12,04,08,09,16.40
2007,12,04,08,10,13.10
2007,12,04,08,11,16.00
2007,12,04,08,12,18.70
2007,12,04,08,13,18.00
2007,12,04,08,14,22.00
2007,12,04,08,15,21.20
2007,12,04,08,16,11.20
2007,12,04,08,17,20.70
2007,12,04,08,18,20.40
2007,12,04,08,19,23.20
2007,12,04,08,20,14.70
2007,12,04,08,21,13.70
2007,12,04,08,22,12.00
2007,12,04,08,23,14.80
2007,12,04,08,24,22.20
2007,12,04,08,25,18.60
2007,12,04,08,26,21.60
2007,12,04,08,27,16.20
2007,12,04,08,28,14.80
2007,12,04,08,29,19.20
2007,12,04,08,30,19.00
2007,12,04,08,31,15.40
2007,12,04,08,32,13.40
2007,12,04,08,33,15.10
2007,12,04,08,34,23.00
2007,12,04,08,35,16.30
2007,12,04,08,36,23.00
2007,12,04,08,37,22.40
2007,12,04,08,38,13.50
2007,12,04,08,39,19.30
2007,12,04,08,40,14.50
2007,12,04,08,41,13.70
2007,12,04,08,42,16.50
2007,12,04,08,43,8.80
2007,12,04,08,44,15.30
2007,12,04,08,45,14.50
2007,12,04,08,46,10.90
2007,12,04,08,47,7.40
2007,12,04,08,48,13.90
2007,12,04,08,49,10.90
2007,12,04,08,50,8.20
2007,12,04,08,51,10.80
2007,12,04,08,52,14.90
2007,12,04,08,53,10.70
2007,12,04,08,54,13.10
2007,12,04,08,55,7.30
2007,12,04,08,56,8.70
2007,12,04,08,57,4.30
2007,12,04,08,58,7.90
2007,12,04,08,59,18.90
2007,12,04,09,00,9.10
2007,12,04,09,01,11.90
2007,12,04,09,02,5.50
2007,12,04,09,03,4.40
2007,12,04,09,04,13.90
2007,12,04,09,05,12.60
2007,12,04,09,06,15.00
2007,12,04,09,07,13.60
2007,12,04,09,08,19.20
2007,12,04,09,09,23.10
2007,12,04,09,10,16.70
2007,12,04,09,11,22.40
2007,12,04,09,12,18.60
2007,12,04,09,13,19.70
2007,12,04,09,14,15.90
2007,12,04,09,15,11.20
2007,12,04,09,16,20.10
2007,12,04,09,17,17.10
2007,12,04,09,18,10.80
2007,12,04,09,19,14.10
2007,12,04,09,20,16.90
2007,12,04,09,21,11.70
2007,12,04,09,22,16.80
2007,12,04,09,23,14.30
2007,12,04,09,24,15.50
2007,12,04,09,25,13.80
2007,12,04,09,26,14.90
2007,12,04,09,27,8.60
2007,12,04,09,28,11.90
2007,12,04,09,29,7.30
2007,12,04,09,30,9.70
2007,12,04,09,31,8.90
2007,12,04,09,32,15.20
2007,12,04,09,33,15.40
2007,12,04,09,34,22.60
2007,12,04,09,35,15.00
2007,12,04,09,36,16.90
2007,12,04,09,37,19.50
2007,12,04,09,38,18.10
2007,12,04,09,39,14.10
2007,12,04,09,40,24.60
2007,12,04,09,41,20.70
2007,12,04,09,42,22.80
2007,12,04,09,43,25.40
2007,12,04,09,44,23.00
2007,12,04,09,45,24.90
2007,12,04,09,46,21.60
2007,12,04,09,47,21.80
2007,12,04,09,48,27.40
2007,12,04,09,49,25.10
2007,12,04,09,50,23.30
2007,12,04,09,51,17.70
2007,12,04,09,52,15.60
2007,12,04,09,53,22.80
2007,12,04,09,54,16.50
2007,12,04,09,55,16.20
2007,12,04,09,56,23.10
2007,12,04,09,57,18.80
2007,12,04,09,58,25.30
2007,12,04,09,59,20.80
2007,12,04,10,00,16.80
2007,12,04,10,01,25.00
2007,12,04,10,02,21.10
2007,12,04,10,03,21.50
2007,12,04,10,04,33.50
2007,12,04,10,05,25.70
2007,12,04,10,06,15.40
2007,12,04,10,07,22.20
2007,12,04,10,08,24.60
2007,12,04,10,09,14.40
2007,12,04,10,10,18.70
2007,12,04,10,11,15.90
2007,12,04,10,12,18.20
2007,12,04,10,13,18.60
2007,12,04,10,14,23.80
2007,12,04,10,15,23.40
2007,12,04,10,16,17.50
2007,12,04,10,17,22.20
2007,12,04,10,18,26.90
2007,12,04,10,19,28.20
2007,12,04,10,20,26.30
2007,12,04,10,21,18.30
2007,12,04,10,22,18.50
2007,12,04,10,23,19.70
2007,12,04,10,24,23.10
2007,12,04,10,25,17.40
2007,12,04,10,26,20.70
2007,12,04,10,27,21.10
2007,12,04,10,28,20.80
2007,12,04,10,29,18.60
2007,12,04,10,30,17.10
2007,12,04,10,31,13.30
2007,12,04,10,32,15.90
2007,12,04,10,33,13.00
2007,12,04,10,34,18.20
2007,12,04,10,35,29.50
2007,12,04,10,36,22.50
2007,12,04,10,37,30.90
2007,12,04,10,38,23.10
2007,12,04,10,39,23.00
2007,12,04,10,40,23.50
2007,12,04,10,41,27.10
2007,12,04,10,42,23.50
2007,12,04,10,43,22.20
2007,12,04,10,44,24.40
2007,12,04,10,45,12.30
2007,12,04,10,46,24.40
2007,12,04,10,47,24.90
2007,12,04,10,48,23.30
2007,12,04,10,49,17.60
2007,12,04,10,50,17.90
2007,12,04,10,51,14.00
2007,12,04,10,52,15.40
2007,12,04,10,53,16.00
2007,12,04,10,54,26.10
2007,12,04,10,55,18.10
2007,12,04,10,56,22.00
2007,12,04,10,57,22.80
2007,12,04,10,58,19.00
2007,12,04,10,59,14.60
2007,12,04,11,00,11.90
2007,12,04,11,01,19.00
2007,12,04,11,02,12.60
2007,12,04,11,03,12.60
2007,12,04,11,04,14.40
2007,12,04,11,05,9.50
2007,12,04,11,06,9.90
2007,12,04,11,07,7.10
2007,12,04,11,08,7.10
2007,12,04,11,09,16.10
2007,12,04,11,10,12.70
2007,12,04,11,11,12.80
2007,12,04,11,12,19.10
2007,12,04,11,13,13.30
2007,12,04,11,14,19.10
2007,12,04,11,15,21.60
2007,12,04,11,16,15.20
2007,12,04,11,17,14.50
2007,12,04,11,18,23.50
2007,12,04,11,19,16.30
2007,12,04,11,20,24.80
2007,12,04,11,21,17.30
2007,12,04,11,22,19.80
2007,12,04,11,23,13.10
2007,12,04,11,24,19.90
2007,12,04,11,25,12.90
2007,12,04,11,26,10.30
2007,12,04,11,27,17.60
2007,12,04,11,28,23.20
2007,12,04,11,29,22.20
2007,12,04,11,30,16.40
2007,12,04,11,31,22.90
2007,12,04,11,32,21.80
2007,12,04,11,33,19.70
2007,12,04,11,34,27.30
2007,12,04,11,35,21.10
2007,12,04,11,36,20.30
2007,12,04,11,37,17.40
2007,12,04,11,38,26.90
2007,12,04,11,39,25.70
2007,12,04,11,40,26.40
2007,12,04,11,41,23.30
2007,12,04,11,42,18.00
2007,12,04,11,43,19.50
2007,12,04,11,44,21.70
2007,12,04,11,45,16.90
2007,12,04,11,46,21.10
2007,12,04,11,47,17.20
2007,12,04,11,48,16.70
2007,12,04,11,49,20.10
2007,12,04,11,50,21.80
2007,12,04,11,51,14.60
2007,12,04,11,52,20.30
2007,12,04,11,53,19.50
2007,12,04,11,54,19.50
2007,12,04,11,55,18.70
2007,12,04,11,56,12.70
2007,12,04,11,57,19.70
2007,12,04,11,58,19.30
2007,12,04,11,59,19.60
2007,12,04,12,00,20.90
2007,12,04,12,01,21.60
2007,12,04,12,02,16.70
2007,12,04,12,03,18.10
2007,12,04,12,04,15.40
2007,12,04,12,05,10.50
2007,12,04,12,06,16.40
2007,12,04,12,07,16.10
2007,12,04,12,08,26.60
2007,12,04,12,09,15.20
2007,12,04,12,10,19.70
2007,12,04,12,11,18.70
2007,12,04,12,12,16.40
2007,12,04,12,13,16.30
2007,12,04,12,14,19.70
2007,12,04,12,15,26.90
2007,12,04,12,16,19.40
2007,12,04,12,17,32.00
2007,12,04,12,18,32.30
2007,12,04,12,19,22.10
2007,12,04,12,20,19.60
2007,12,04,12,21,13.60
2007,12,04,12,22,18.40
2007,12,04,12,23,24.50
2007,12,04,12,24,20.80
2007,12,04,12,25,22.60
2007,12,04,12,26,15.00
2007,12,04,12,27,24.10
2007,12,04,12,28,18.40
2007,12,04,12,29,31.30
2007,12,04,12,30,23.70
2007,12,04,12,31,29.50
2007,12,04,12,32,24.60
2007,12,04,12,33,20.40
2007,12,04,12,34,18.90
2007,12,04,12,35,24.90
2007,12,04,12,36,21.60
2007,12,04,12,37,24.00
2007,12,04,12,38,19.80
2007,12,04,12,39,18.80
2007,12,04,12,40,21.60
2007,12,04,12,41,19.50
2007,12,04,12,42,27.50
2007,12,04,12,43,21.10
2007,12,04,12,44,30.00
2007,12,04,12,45,25.50
2007,12,04,12,46,19.50
2007,12,04,12,47,23.00
2007,12,04,12,48,25.90
2007,12,04,12,49,24.10
2007,12,04,12,50,21.00
2007,12,04,12,51,16.10
2007,12,04,12,52,21.50
2007,12,04,12,53,21.40
2007,12,04,12,54,28.10
2007,12,04,12,55,19.10
2007,12,04,12,56,16.60
2007,12,04,12,57,28.10
2007,12,04,12,58,26.00
2007,12,04,12,59,27.80
2007,12,04,13,00,28.40
2007,12,04,13,01,17.90
2007,12,04,13,02,21.30
2007,12,04,13,03,16.90
2007,12,04,13,04,19.10
2007,12,04,13,05,24.20
2007,12,04,13,06,19.90
2007,12,04,13,07,21.30
2007,12,04,13,08,21.60
2007,12,04,13,09,28.50
2007,12,04,13,10,25.10
2007,12,04,13,11,24.20
2007,12,04,13,12,28.60
2007,12,04,13,13,19.50
2007,12,04,13,14,20.90
2007,12,04,13,15,29.70
2007,12,04,13,16,22.90
2007,12,04,13,17,17.40
2007,12,04,13,18,24.30
2007,12,04,13,19,23.50
2007,12,04,13,20,22.90
2007,12,04,13,21,23.00
2007,12,04,13,22,25.00
2007,12,04,13,23,27.50
2007,12,04,13,24,21.90
2007,12,04,13,25,19.60
2007,12,04,13,26,19.80
2007,12,04,13,27,25.90
2007,12,04,13,28,21.90
2007,12,04,13,29,26.60
2007,12,04,13,30,22.10
2007,12,04,13,31,20.60
2007,12,04,13,32,19.90
2007,12,04,13,33,20.20
2007,12,04,13,34,16.00
2007,12,04,13,35,18.40
2007,12,04,13,36,19.70
2007,12,04,13,37,30.70
2007,12,04,13,38,17.50
2007,12,04,13,39,23.50
2007,12,04,13,40,25.70
2007,12,04,13,41,25.70
2007,12,04,13,42,25.10
2007,12,04,13,43,21.50
2007,12,04,13,44,23.80
2007,12,04,13,45,23.40
2007,12,04,13,46,30.60
2007,12,04,13,47,22.70
2007,12,04,13,48,15.80
2007,12,04,13,49,21.40
2007,12,04,13,50,19.50
2007,12,04,13,51,22.60
2007,12,04,13,52,20.20
2007,12,04,13,53,25.40
2007,12,04,13,54,18.50
2007,12,04,13,55,17.90
2007,12,04,13,56,17.20
2007,12,04,13,57,24.50
2007,12,04,13,58,19.90
2007,12,04,13,59,17.50
2007,12,04,14,00,19.50
2007,12,04,14,01,20.90
2007,12,04,14,02,20.20
2007,12,04,14,03,23.50
2007,12,04,14,04,20.30
2007,12,04,14,05,19.90
2007,12,04,14,06,19.00
2007,12,04,14,07,16.00
2007,12,04,14,08,13.00
2007,12,04,14,09,13.50
2007,12,04,14,10,19.10
2007,12,04,14,11,18.40
2007,12,04,14,12,14.50
2007,12,04,14,13,17.50
2007,12,04,14,14,18.90
2007,12,04,14,15,17.30
2007,12,04,14,16,18.70
2007,12,04,14,17,22.00
2007,12,04,14,18,18.60
2007,12,04,14,19,15.80
2007,12,04,14,20,14.20
2007,12,04,14,21,21.00
2007,12,04,14,22,18.40
2007,12,04,14,23,17.70
2007,12,04,14,24,25.80
2007,12,04,14,25,17.10
2007,12,04,14,26,20.00
2007,12,04,14,27,17.30
2007,12,04,14,28,19.60
2007,12,04,14,29,17.20
2007,12,04,14,30,18.80
2007,12,04,14,31,24.90
2007,12,04,14,32,18.80
2007,12,04,14,33,18.90
2007,12,04,14,34,19.50
2007,12,04,14,35,20.30
2007,12,04,14,36,22.70
2007,12,04,14,37,20.60
2007,12,04,14,38,15.40
2007,12,04,14,39,18.80
2007,12,04,14,40,22.10
2007,12,04,14,41,26.20
2007,12,04,14,42,22.40
2007,12,04,14,43,16.30
2007,12,04,14,44,13.40
2007,12,04,14,45,15.30
2007,12,04,14,46,22.80
2007,12,04,14,47,16.60
2007,12,04,14,48,17.40
2007,12,04,14,49,12.20
2007,12,04,14,50,10.20
2007,12,04,14,51,8.40
2007,12,04,14,52,18.20
2007,12,04,14,53,18.00
2007,12,04,14,54,16.80
2007,12,04,14,55,16.10
2007,12,04,14,56,12.00
2007,12,04,14,57,15.30
2007,12,04,14,58,16.00
2007,12,04,14,59,22.10
2007,12,04,15,00,15.60
2007,12,04,15,01,13.90
2007,12,04,15,02,21.40
2007,12,04,15,03,16.40
2007,12,04,15,04,18.10
2007,12,04,15,05,19.10
2007,12,04,15,06,18.10
2007,12,04,15,07,18.90
2007,12,04,15,08,13.20
2007,12,04,15,09,19.10
2007,12,04,15,10,24.40
2007,12,04,15,11,24.20
2007,12,04,15,12,18.20
2007,12,04,15,13,29.30
2007,12,04,15,14,27.80
2007,12,04,15,15,20.50
2007,12,04,15,16,17.90
2007,12,04,15,17,22.00
2007,12,04,15,18,22.80
2007,12,04,15,19,20.30
2007,12,04,15,20,22.40
2007,12,04,15,21,23.30
2007,12,04,15,22,24.20
2007,12,04,15,23,19.20
2007,12,04,15,24,18.50
2007,12,04,15,25,17.50
2007,12,04,15,26,19.60
2007,12,04,15,27,22.80
2007,12,04,15,28,26.70
2007,12,04,15,29,20.70
2007,12,04,15,30,13.00
2007,12,04,15,31,17.90
2007,12,04,15,32,19.60
2007,12,04,15,33,20.50
2007,12,04,15,34,23.20
2007,12,04,15,35,19.60
2007,12,04,15,36,20.00
2007,12,04,15,37,18.20
2007,12,04,15,38,14.00
2007,12,04,15,39,16.60
2007,12,04,15,40,22.50
2007,12,04,15,41,18.90
2007,12,04,15,42,15.60
2007,12,04,15,43,26.90
2007,12,04,15,44,20.20
2007,12,04,15,45,26.00
2007,12,04,15,46,13.00
2007,12,04,15,47,21.70
2007,12,04,15,48,17.10
2007,12,04,15,49,15.80
2007,12,04,15,50,12.90
2007,12,04,15,51,14.10
2007,12,04,15,52,15.30
2007,12,04,15,53,20.90
2007,12,04,15,54,11.10
2007,12,04,15,55,14.40
2007,12,04,15,56,17.30
2007,12,04,15,57,17.50
2007,12,04,15,58,17.80
2007,12,04,15,59,15.20
2007,12,04,16,00,16.70
2007,12,04,16,01,11.30
2007,12,04,16,02,9.50
2007,12,04,16,03,8.80
2007,12,04,16,04,8.60
2007,12,04,16,05,8.40
2007,12,04,16,06,13.60
2007,12,04,16,07,9.60
2007,12,04,16,08,12.30
2007,12,04,16,09,13.00
2007,12,04,16,10,9.30
2007,12,04,16,11,8.60
2007,12,04,16,12,7.30
2007,12,04,16,13,11.00
2007,12,04,16,14,13.00
2007,12,04,16,15,20.80
2007,12,04,16,16,14.40
2007,12,04,16,17,13.80
2007,12,04,16,18,11.50
2007,12,04,16,19,10.40
2007,12,04,16,20,15.60
2007,12,04,16,21,9.60
2007,12,04,16,22,14.40
2007,12,04,16,23,19.80
2007,12,04,16,24,15.50
2007,12,04,16,25,9.60
2007,12,04,16,26,12.20
2007,12,04,16,27,10.10
2007,12,04,16,28,7.80
2007,12,04,16,29,16.30
2007,12,04,16,30,13.90
2007,12,04,16,31,14.40
2007,12,04,16,32,25.10
2007,12,04,16,33,19.80
2007,12,04,16,34,20.80
2007,12,04,16,35,20.70
2007,12,04,16,36,12.40
2007,12,04,16,37,11.80
2007,12,04,16,38,11.60
2007,12,04,16,39,15.70
2007,12,04,16,40,14.90
2007,12,04,16,41,16.70
2007,12,04,16,42,13.60
2007,12,04,16,43,10.50
2007,12,04,16,44,10.80
2007,12,04,16,45,9.70
2007,12,04,16,46,9.40
2007,12,04,16,47,7.50
2007,12,04,16,48,11.50
2007,12,04,16,49,16.30
2007,12,04,16,50,9.70
2007,12,04,16,51,7.60
2007,12,04,16,52,8.30
2007,12,04,16,53,15.60
2007,12,04,16,54,13.50
2007,12,04,16,55,11.40
2007,12,04,16,56,10.50
2007,12,04,16,57,8.40
2007,12,04,16,58,15.30
2007,12,04,16,59,9.10
2007,12,04,17,00,16.50
2007,12,04,17,01,15.40
2007,12,04,17,02,15.40
2007,12,04,17,03,8.70
2007,12,04,17,04,8.90
2007,12,04,17,05,16.90
2007,12,04,17,06,9.30
2007,12,04,17,07,8.20
2007,12,04,17,08,9.80
2007,12,04,17,09,11.10
2007,12,04,17,10,8.60
2007,12,04,17,11,18.90
2007,12,04,17,12,17.80
2007,12,04,17,13,10.10
2007,12,04,17,14,14.80
2007,12,04,17,15,15.90
2007,12,04,17,16,17.30
2007,12,04,17,17,20.90
2007,12,04,17,18,17.70
2007,12,04,17,19,16.40
2007,12,04,17,20,14.00
2007,12,04,17,21,12.70
2007,12,04,17,22,11.20
2007,12,04,17,23,6.20
2007,12,04,17,24,9.90
2007,12,04,17,25,13.70
2007,12,04,17,26,10.70
2007,12,04,17,27,9.70
2007,12,04,17,28,14.80
2007,12,04,17,29,13.60
2007,12,04,17,30,9.20
2007,12,04,17,31,9.10
2007,12,04,17,32,14.10